Total_Precipitation_Accumulation
0.67 0.72 0.82 0.99 1.21 1.23 1.12 1.00 0.86 0.82 0.79 0.78 0.80 0.82 0.82 0.83 0.82 0.86 0.81 0.73 0.75 0.78 0.81 0.84 0.84 0.85 0.88 0.84 0.87 0.90 0.90 0.96 0.93 0.53 0.38 0.40 0.57 0.64 0.61 0.57 0.57 0.59 0.59
0.64 0.68 0.77 0.85 1.02 1.24 1.18 1.05 0.93 0.86 0.82 0.82 0.81 0.83 0.82 0.83 0.85 0.89 0.86 0.77 0.76 0.77 0.79 0.79 0.79 0.79 0.83 0.79 0.80 0.81 0.79 0.75 0.79 0.63 0.41 0.38 0.47 0.56 0.67 0.71 0.67 0.65 0.63
0.64 0.68 0.70 0.78 0.87 0.98 1.13 1.08 0.99 0.92 0.87 0.84 0.84 0.85 0.90 0.91 0.87 0.84 0.86 0.82 0.77 0.77 0.78 0.81 0.79 0.81 0.83 0.77 0.77 0.75 0.68 0.64 0.66 0.68 0.51 0.43 0.47 0.52 0.69 0.84 0.79 0.74 0.72
0.57 0.65 0.64 0.65 0.73 0.78 0.90 1.08 1.09 1.00 0.91 0.83 0.80 0.84 0.94 1.10 1.09 0.97 1.00 0.94 0.83 0.77 0.73 0.72 0.76 0.87 0.88 0.86 0.87 0.76 0.70 0.73 0.77 0.80 0.67 0.56 0.58 0.60 0.76 0.95 1.00 0.92 0.85
0.47 0.55 0.61 0.65 0.72 0.75 0.76 0.87 1.05 1.02 0.88 0.79 0.76 0.79 0.89 1.23 1.58 1.52 1.42 1.19 0.91 0.76 0.68 0.69 0.76 0.89 0.93 1.04 1.13 1.01 0.98 1.07 1.04 1.06 0.96 0.86 0.82 0.86 0.93 0.95 1.08 1.08 1.02
0.43 0.50 0.56 0.65 0.78 0.80 0.75 0.79 0.89 0.97 0.92 0.83 0.77 0.75 0.79 1.06 1.63 1.72 1.44 1.07 0.88 0.77 0.71 0.67 0.69 0.81 0.84 0.91 1.04 1.11 1.18 1.30 1.34 1.34 1.29 1.18 0.97 0.91 0.94 1.05 1.11 1.27 1.31
0.44 0.49 0.54 0.58 0.72 0.79 0.78 0.83 0.84 0.87 0.94 0.95 0.83 0.73 0.70 0.86 1.42 1.53 1.24 0.93 0.79 0.74 0.69 0.67 0.67 0.74 0.81 0.80 0.88 0.91 0.93 1.06 1.28 1.39 1.44 1.13 0.96 0.90 1.09 1.27 1.23 1.31 1.29
0.47 0.53 0.57 0.55 0.60 0.72 0.81 0.82 0.81 0.81 0.83 0.89 0.88 0.79 0.71 0.75 1.22 1.37 1.13 0.88 0.76 0.69 0.63 0.64 0.62 0.65 0.76 0.95 0.95 0.90 0.80 0.83 1.04 1.24 1.46 1.29 1.12 1.15 1.43 1.71 1.81 1.73 1.39
0.53 0.56 0.57 0.52 0.53 0.62 0.71 0.78 0.79 0.79 0.74 0.75 0.80 0.79 0.74 0.71 0.99 1.23 1.08 0.85 0.79 0.71 0.60 0.57 0.58 0.59 0.76 1.02 1.03 0.91 0.75 0.68 0.78 1.09 1.39 1.51 1.51 1.60 1.81 2.14 2.31 2.16 1.74
0.49 0.55 0.52 0.47 0.44 0.45 0.55 0.70 0.77 0.77 0.73 0.71 0.74 0.75 0.69 0.63 0.82 1.06 1.08 0.86 0.77 0.71 0.65 0.58 0.64 0.74 0.88 1.02 0.97 0.94 1.01 0.83 0.73 0.78 0.87 1.00 1.10 1.22 1.52 1.81 2.07 2.12 1.82
0.47 0.52 0.47 0.44 0.44 0.44 0.50 0.63 0.71 0.79 0.81 0.75 0.71 0.72 0.68 0.64 0.73 0.88 1.08 0.92 0.76 0.72 0.72 0.68 0.63 0.80 0.88 0.93 1.00 0.99 1.20 1.13 0.93 0.93 0.89 0.86 0.88 0.99 1.18 1.46 1.82 2.05 2.02
0.47 0.44 0.43 0.45 0.47 0.48 0.51 0.59 0.69 0.78 0.85 0.79 0.71 0.70 0.67 0.64 0.71 0.84 1.00 1.01 0.92 0.76 0.68 0.59 0.62 0.80 0.89 0.97 0.95 1.01 1.13 1.11 0.98 0.91 0.82 0.78 0.83 0.91 1.02 1.19 1.49 1.71 1.75
0.43 0.41 0.40 0.44 0.46 0.48 0.53 0.61 0.69 0.77 0.80 0.79 0.71 0.66 0.64 0.61 0.70 0.87 0.85 0.90 0.95 0.81 0.68 0.75 0.80 0.89 0.91 0.83 0.85 0.94 0.95 0.91 1.00 0.99 0.85 0.77 0.81 0.94 1.00 1.05 1.19 1.45 1.61
0.36 0.40 0.38 0.42 0.47 0.51 0.56 0.61 0.66 0.75 0.81 0.73 0.67 0.63 0.60 0.63 0.79 0.91 0.85 0.84 0.92 0.91 0.86 0.89 0.94 0.92 0.83 0.73 0.74 0.76 0.74 0.81 0.96 0.98 0.86 0.76 0.75 0.84 0.96 1.06 1.15 1.31 1.53
0.33 0.39 0.44 0.46 0.51 0.56 0.59 0.61 0.64 0.66 0.79 0.77 0.66 0.65 0.69 0.78 0.92 1.01 0.98 0.92 0.93 0.95 1.07 1.13 1.04 0.94 0.88 0.76 0.65 0.58 0.61 0.73 0.86 0.82 0.81 0.80 0.77 0.79 0.87 0.97 1.16 1.29 1.44
0.36 0.40 0.47 0.52 0.53 0.54 0.54 0.57 0.64 0.66 0.70 0.69 0.64 0.64 0.63 0.77 0.91 0.95 1.00 1.00 1.03 1.10 1.18 1.13 0.92 0.78 0.74 0.69 0.65 0.60 0.56 0.58 0.65 0.73 0.79 0.81 0.82 0.83 0.86 0.88 1.02 1.24 1.39
0.36 0.40 0.45 0.51 0.49 0.47 0.47 0.47 0.52 0.63 0.72 0.70 0.66 0.63 0.65 0.72 0.78 0.86 0.96 1.02 1.06 1.08 1.03 0.86 0.71 0.65 0.62 0.61 0.59 0.56 0.53 0.50 0.56 0.64 0.68 0.73 0.79 0.83 0.85 0.88 0.94 1.08 1.25
0.32 0.39 0.41 0.45 0.46 0.46 0.45 0.45 0.46 0.51 0.61 0.66 0.68 0.66 0.66 0.71 0.74 0.82 0.94 1.07 1.09 0.97 0.83 0.75 0.67 0.61 0.59 0.61 0.61 0.59 0.57 0.55 0.59 0.61 0.62 0.63 0.71 0.80 0.83 0.83 0.86 0.98 1.13
0.33 0.34 0.34 0.38 0.43 0.45 0.46 0.48 0.48 0.49 0.53 0.57 0.62 0.73 0.80 0.81 0.84 0.87 0.90 0.90 0.87 0.80 0.75 0.74 0.70 0.67 0.65 0.64 0.65 0.65 0.64 0.62 0.60 0.61 0.62 0.61 0.61 0.69 0.73 0.71 0.75 0.86 1.01
0.35 0.40 0.37 0.38 0.43 0.46 0.48 0.52 0.55 0.57 0.59 0.59 0.61 0.67 0.84 1.00 1.01 0.97 0.87 0.81 0.80 0.72 0.69 0.75 0.75 0.74 0.73 0.74 0.73 0.72 0.71 0.67 0.63 0.63 0.61 0.59 0.58 0.61 0.64 0.65 0.70 0.77 0.83
0.35 0.39 0.43 0.40 0.40 0.43 0.48 0.52 0.56 0.61 0.63 0.60 0.56 0.63 0.86 1.00 0.93 0.80 0.76 0.78 0.83 0.83 0.78 0.78 0.78 0.78 0.78 0.79 0.79 0.76 0.72 0.65 0.60 0.59 0.59 0.57 0.58 0.59 0.59 0.62 0.66 0.70 0.78
0.37 0.38 0.39 0.39 0.41 0.44 0.49 0.53 0.58 0.62 0.62 0.63 0.62 0.68 0.82 0.81 0.80 0.78 0.75 0.76 0.83 0.89 0.90 0.90 0.86 0.81 0.82 0.85 0.86 0.83 0.75 0.64 0.57 0.56 0.57 0.56 0.56 0.56 0.57 0.58 0.59 0.63 0.71
0.40 0.41 0.43 0.41 0.42 0.53 0.56 0.54 0.58 0.62 0.65 0.67 0.69 0.71 0.74 0.75 0.76 0.78 0.80 0.82 0.87 0.91 0.89 0.90 0.87 0.82 0.78 0.78 0.79 0.83 0.81 0.67 0.57 0.58 0.62 0.60 0.58 0.57 0.56 0.56 0.55 0.58 0.64
0.45 0.48 0.48 0.45 0.46 0.52 0.57 0.59 0.60 0.63 0.67 0.70 0.70 0.71 0.73 0.74 0.76 0.79 0.83 0.88 0.92 0.91 0.87 0.87 0.83 0.78 0.75 0.75 0.73 0.72 0.71 0.68 0.69 0.69 0.66 0.67 0.62 0.57 0.58 0.59 0.56 0.57 0.63
0.50 0.50 0.51 0.50 0.50 0.53 0.59 0.63 0.64 0.64 0.67 0.69 0.71 0.72 0.72 0.75 0.78 0.79 0.81 0.85 0.87 0.86 0.83 0.82 0.81 0.79 0.76 0.73 0.70 0.69 0.74 0.78 0.81 0.88 0.89 0.82 0.70 0.62 0.62 0.61 0.58 0.57 0.61
0.50 0.51 0.52 0.54 0.55 0.57 0.62 0.68 0.67 0.65 0.70 0.70 0.70 0.72 0.74 0.76 0.77 0.74 0.74 0.77 0.79 0.77 0.75 0.75 0.75 0.77 0.77 0.75 0.75 0.80 0.85 0.82 0.82 0.89 0.96 0.93 0.77 0.63 0.62 0.64 0.59 0.59 0.61